User: anonymous   Login
Location: Unspecified
(0.0000°N, 0.0000°E)
Time: 16:40:36
(UTC+01:00)
Language:

H-2A R/B - Orbit

View from above orbital plane
View from above orbital plane
View from above satellite
View from above satellite

Ground track
Ground track

The orbit data is extracted from the following two-line orbital elements,

1 26899U 01038B   16337.73047970  .00000642  00000-0  32535-3 0  9996
2 26899  27.9232 145.4855 7114046  57.5910 352.1655  2.47387547131642
Epoch (UTC): 02 December 2016 17:31:53
Eccentricity: 0.7114046
inclination: 27.9232°
perigee height: 286 km
apogee height: 33143 km
right ascension of ascending node: 145.4855°
argument of perigee: 57.5910°
revolutions per day: 2.47387547
mean anomaly at epoch: 352.1655°
orbit number at epoch: 13164

The dashed part of the orbit path shows where the satellite is in the earth's shadow,  

DLR